NOAA 16 DEB, 41297

Orbit data source: Space-Track

NOAA 16 DEB, 41297 is space debris in SSO originally from a launch on Thu, 21 Sep 2000 UTC launched from the Air Force Western Test Range (AFWTR). Debris objects in space refer to the collection of defunct objects orbiting the Earth. Examples of debris include non-operational satellites, rocket bodies, and fragments generated from explosions, collisions, or faulty payload assembly.

Loading next visibility...
Identifier
41297, 2000-055GZ
Orbit
SSO
Country
Flag of USUS
Related business
Manufacturer
Unknown
Mission
Spacecraft
Bus & Motor
Unknown
Mass
Unknown
Launch date (UTC)
2000-09-21 (25 years ago)
Launch vehicle
Unknown
Launch site
Air Force Western Test Range (AFWTR)
Object type
Payload
Rocket body
Debris
Shape & HBR
Unknown shape, 0.1 m
Radar Cross Section
Small (<0.1 m²)

Expand to show TLE details & history
Last TLE update: 3 days ago

TLE from 3 days ago
0 NOAA 16 DEB
1 41297U 00055GZ  25301.62139416  .00004763  00000-0  24915-2 0  9999
2 41297  98.9615   0.2690 0059863 350.0391   9.9590 14.13897259503270
Epoch: 2025-10-28T14:54Z
TLE epoch observation values (Epoch: 2025-10-28T14:54:48.455Z)
Latitude
-0.00005°
Longitude
99.36086°
Altitude
806.369 km
Speed
7.472 km/s
True Right ascension
00h 01m 04s
True Declination
0° 00' 00"
Sunlit
Object was in full shadow at epoch
Visualization orbit readout
Latitude
Unknown
Longitude
Unknown
Altitude
Unknown
Speed
Unknown
Apparent Right ascension
Unknown
Apparent Declination
Unknown
Sunlit
N/A
Visualization observer readout
Local Sidereal Time
19:53:09
Azimuth
Unknown
Elevation
Unknown
Doppler factor
Unknown
Orbital elements
Apogee altitude
886.474 km
Perigee altitude
800.015 km
Semi-major axis
7,221.382 km
Eccentricity
0.00599
Inclination
98.9615°
RAAN
0.269°
Arg. of periapsis
350.0391°
True anomaly
10.07852°
Mean anomaly
9.959°
Eccentric anomaly
10.01867°
Mean motion
3.53682 °/min
Orbital period
101.79 mins
BSTAR
0.0024915
Loading maneuver chart data...
Computing Atmospheric mass density...
Loading historical data...
Loading historical data...
Loading historical data...
Loading historical data...
Loading historical data...
Loading historical data...
Loading historical data...

Documentation

Showing up to 5 results
|